Weather in Tsentralny

Russia / Tomsk District     58°56′54″N   86°00′08″E
temp.,
°C
wind,
m/s
gust,
m/s
humid.,
%
clouds,
%
prec.,
mm/h
press.,
hPa
HPBL,
m
14 june, mon
mon1401:00+8n310690 0.0 1017201
04:00+6n37775 0.0 1018136
07:00+10n356380 0.0 1019254
10:00+14n3544100 0.0 10201118
13:00+18n35325 0.0 10191579
16:00+20nnw35345 0.0 10181910
19:00+21nnw354014 0.0 10181952
22:00+15wsw11645 0.0 101711
15 june, tue
tue1501:00+12ssw2270100 0.0 101739
04:00+12wsw4989100 0.6 1017270
07:00+13s3895100 2.7 1016227
10:00+17ssw4769100 0.0 1014511
13:00+18s3481100 0.4 1013251
16:00+16wsw2590100 0.3 1013208
19:00+17sw3887100 0.3 1012412
22:00+14wnw1194100 0.0 101116
16 june, wed
wed1601:00+14ssw389594 0.3 1010196
04:00+13s27975 0.1 1009147
07:00+15s24929 0.3 1008160
10:00+21sw356590 0.0 1008671
13:00+24wsw5754100 0.0 10071165
16:00+27sw464559 0.0 10051805
19:00+19wsw3976100 0.2 1006321
22:00+16ssw3891100 0.1 1005327
17 june, thu
thu1701:00+15sw399832 0.1 1005311
04:00+15w369392 0.0 1005361
07:00+15w2594100 0.0 1005295
10:00+16wsw248997 0.3 1006475
13:00+18wsw446744 0.4 1006935
16:00+21w345199 0.1 10051808
19:00+18nw236520 0.4 1005460
22:00+15n118216 0.2 100511
18 june, fri
fri1801:00+13ene129299 0.3 100533
04:00+12n229570 0.4 100431
07:00+14n2491100 0.4 1005157
10:00+20nne236628 0.0 1004937
13:00+24ese344465 0.2 10032058
16:00+21s1261100 0.0 100473
19:00+22ese236133 0.4 1004751
22:00+16ese26890 0.1 1004137